Weather History for KSOP - January, 2014

Change the Weather History Date:

Monday, January 20, 2014

  Actual Average Record
Temperature  
Mean Temperature 50 °F -  
Max Temperature 64 °F 47 °F 68 °F (1999)
Min Temperature 35 °F 28 °F 19 °F (1997)
Degree Days  
Heating Degree Days 16    
Moisture  
Dew Point 25 °F    
Average Humidity 44    
Maximum Humidity 65    
Minimum Humidity 20    
Precipitation  
Precipitation 0.00 in - - ()
Sea Level Pressure  
Sea Level Pressure 29.87 in    
Wind  
Wind Speed 8 mph (WSW)    
Max Wind Speed 13 mph    
Max Gust Speed 18 mph    
Visibility 10 miles    
Events      
Averages and records for this station are not official NWS values.
T = Trace of Precipitation, MM = Missing Value Source: NWS Daily Summary

Daily Weather History Graph

Daily Weather History Graph

Search for Another Location

Airport or City:

Trip Planner

Search our weather history database for the weather conditions in past years. The results will help you decide how hot, cold, wet, or windy it might be!

Date:

Astronomy

Jan. 20, 2014 Rise Set
Actual Time 7:23 AM EST 5:33 PM EST
Civil Twilight 6:56 AM EST 6:01 PM EST
Nautical Twilight 6:25 AM EST 6:31 PM EST
Astronomical Twilight 5:55 AM EST 7:02 PM EST
Moon 9:55 PM EST (1/20) 9:33 AM EST (1/20)
Length of Visible Light 11h 04m
Length of Day
10h 09m
Waning Gibbous, 83% of the Moon is Illuminated
Jan 20
Waning Gibbous
Jan 24
Last Quarter
Jan 30
New
Feb 6
First Quarter
Feb 14
Full

Hourly Weather History & Observations

Time (EST) Temp. Windchill Dew Point Humidity Pressure Visibility Wind Dir Wind Speed Gust Speed Precip Events Conditions
12:15 AM 37.4 °F 32.1 °F 24.8 °F 60% 29.94 in 10.0 mi WSW 6.9 mph - N/A   Clear
12:35 AM 37.4 °F 32.1 °F 23.0 °F 56% 29.93 in 10.0 mi WSW 6.9 mph - N/A   Clear
12:55 AM 39.2 °F 35.0 °F 24.8 °F 56% 29.93 in 10.0 mi WSW 5.8 mph - N/A   Clear
1:15 AM 39.2 °F 33.6 °F 24.8 °F 56% 29.92 in 10.0 mi WSW 8.1 mph - N/A   Clear
1:35 AM 39.2 °F 33.0 °F 23.0 °F 52% 29.91 in 10.0 mi SW 9.2 mph - N/A   Clear
1:55 AM 37.4 °F 31.4 °F 24.8 °F 60% 29.91 in 10.0 mi WSW 8.1 mph - N/A   Clear
2:15 AM 39.2 °F 34.2 °F 24.8 °F 56% 29.92 in 10.0 mi WSW 6.9 mph - N/A   Clear
2:35 AM 39.2 °F 34.2 °F 24.8 °F 56% 29.92 in 10.0 mi WSW 6.9 mph - N/A   Clear
2:55 AM 37.4 °F 33.8 °F 24.8 °F 60% 29.92 in 10.0 mi West 4.6 mph - N/A   Clear
3:15 AM 37.4 °F 32.8 °F 23.0 °F 56% 29.92 in 10.0 mi WSW 5.8 mph - N/A   Clear
3:35 AM 37.4 °F 32.1 °F 23.0 °F 56% 29.92 in 10.0 mi WSW 6.9 mph - N/A   Clear
3:55 AM 37.4 °F 29.8 °F 24.8 °F 60% 29.91 in 10.0 mi WSW 11.5 mph - N/A   Clear
4:15 AM 37.4 °F 29.8 °F 24.8 °F 60% 29.89 in 10.0 mi WSW 11.5 mph - N/A   Clear
4:35 AM 39.2 °F 33.6 °F 23.0 °F 52% 29.90 in 10.0 mi West 8.1 mph - N/A   Clear
4:55 AM 37.4 °F 32.8 °F 23.0 °F 56% 29.89 in 10.0 mi West 5.8 mph - N/A   Clear
5:15 AM 37.4 °F 30.8 °F 23.0 °F 56% 29.89 in 10.0 mi SW 9.2 mph - N/A   Clear
5:35 AM 37.4 °F 33.8 °F 23.0 °F 56% 29.90 in 10.0 mi West 4.6 mph - N/A   Clear
5:55 AM 35.6 °F 29.2 °F 23.0 °F 60% 29.89 in 10.0 mi WSW 8.1 mph - N/A   Clear
6:15 AM 35.6 °F 31.7 °F 23.0 °F 60% 29.90 in 10.0 mi West 4.6 mph - N/A   Clear
6:35 AM 35.6 °F 29.2 °F 23.0 °F 60% 29.89 in 10.0 mi WSW 8.1 mph - N/A   Clear
6:55 AM 35.6 °F 29.2 °F 23.0 °F 60% 29.89 in 10.0 mi WSW 8.1 mph - N/A   Clear
7:15 AM 35.6 °F 29.2 °F 23.0 °F 60% 29.90 in 10.0 mi WSW 8.1 mph - N/A   Clear
7:35 AM 35.6 °F 30.7 °F 23.0 °F 60% 29.90 in 10.0 mi WSW 5.8 mph - N/A   Clear
7:55 AM 35.6 °F 32.8 °F 23.0 °F 60% 29.91 in 10.0 mi West 3.5 mph - N/A   Clear
8:15 AM 35.6 °F 29.9 °F 24.8 °F 65% 29.91 in 10.0 mi WSW 6.9 mph - N/A   Clear
8:35 AM 37.4 °F 30.3 °F 24.8 °F 60% 29.90 in 10.0 mi WSW 10.4 mph - N/A   Clear
8:55 AM 39.2 °F 32.5 °F 24.8 °F 56% 29.91 in 10.0 mi WSW 10.4 mph - N/A   Clear
9:15 AM 42.8 °F 37.0 °F 24.8 °F 49% 29.91 in 10.0 mi WSW 10.4 mph - N/A   Clear
9:35 AM 42.8 °F 37.0 °F 24.8 °F 49% 29.91 in 10.0 mi WSW 10.4 mph 16.1 mph N/A   Clear
9:55 AM 44.6 °F 38.4 °F 24.8 °F 46% 29.91 in 10.0 mi WSW 12.7 mph 16.1 mph N/A   Clear
10:15 AM 46.4 °F 41.5 °F 24.8 °F 43% 29.91 in 10.0 mi WSW 10.4 mph 17.3 mph N/A   Clear
10:35 AM 48.2 °F - 26.6 °F 43% 29.91 in 10.0 mi WSW 10.4 mph - N/A   Clear
10:55 AM 50.0 °F - 26.6 °F 40% 29.91 in 10.0 mi WSW 8.1 mph - N/A   Clear
11:15 AM 51.8 °F - 26.6 °F 38% 29.90 in 10.0 mi WSW 9.2 mph - N/A   Clear
11:35 AM 51.8 °F - 24.8 °F 35% 29.89 in 10.0 mi West 6.9 mph - N/A   Clear
11:55 AM 55.4 °F - 24.8 °F 31% 29.87 in 10.0 mi SW 8.1 mph - N/A   Clear
12:15 PM 57.2 °F - 24.8 °F 29% 29.86 in 10.0 mi West 8.1 mph - N/A   Clear
12:35 PM 57.2 °F - 24.8 °F 29% 29.85 in 10.0 mi West 8.1 mph - N/A   Clear
12:55 PM 59.0 °F - 24.8 °F 27% 29.84 in 10.0 mi WSW 11.5 mph - N/A   Clear
1:15 PM 60.8 °F - 24.8 °F 25% 29.84 in 10.0 mi West 4.6 mph - N/A   Clear
1:35 PM 60.8 °F - 24.8 °F 25% 29.82 in 10.0 mi West 6.9 mph - N/A   Clear
1:55 PM 62.6 °F - 24.8 °F 24% 29.82 in 10.0 mi SW 8.1 mph - N/A   Clear
2:15 PM 62.6 °F - 23.0 °F 22% 29.81 in 10.0 mi WSW 12.7 mph 17.3 mph N/A   Clear
2:35 PM 62.6 °F - 23.0 °F 22% 29.81 in 10.0 mi WSW 12.7 mph - N/A   Clear
2:55 PM 62.6 °F - 23.0 °F 22% 29.81 in 10.0 mi WSW 12.7 mph 18.4 mph N/A   Clear
3:15 PM 64.4 °F - 23.0 °F 21% 29.81 in 10.0 mi WSW 6.9 mph - N/A   Clear
3:35 PM 64.4 °F - 23.0 °F 21% 29.81 in 10.0 mi WSW 9.2 mph - N/A   Clear
3:55 PM 64.4 °F - 23.0 °F 21% 29.81 in 10.0 mi WSW 11.5 mph 16.1 mph N/A   Clear
4:15 PM 64.4 °F - 23.0 °F 21% 29.82 in 10.0 mi WSW 10.4 mph 16.1 mph N/A   Clear
4:35 PM 62.6 °F - 21.2 °F 20% 29.82 in 10.0 mi WSW 8.1 mph - N/A   Clear
4:55 PM 60.8 °F - 23.0 °F 23% 29.82 in 10.0 mi WSW 8.1 mph - N/A   Clear
5:15 PM 59.0 °F - 24.8 °F 27% 29.83 in 10.0 mi WSW 6.9 mph - N/A   Clear
5:35 PM 55.4 °F - 24.8 °F 31% 29.83 in 10.0 mi WSW 6.9 mph - N/A   Clear
5:55 PM 53.6 °F - 24.8 °F 33% 29.84 in 10.0 mi SW 5.8 mph - N/A   Clear
6:15 PM 50.0 °F - 24.8 °F 37% 29.84 in 10.0 mi SW 6.9 mph - N/A   Clear
6:35 PM 51.8 °F - 26.6 °F 38% 29.84 in 10.0 mi SW 6.9 mph - N/A   Clear
6:55 PM 46.4 °F 43.5 °F 24.8 °F 43% 29.85 in 10.0 mi SSW 5.8 mph - N/A   Clear
7:15 PM 46.4 °F 43.5 °F 26.6 °F 46% 29.85 in 10.0 mi SW 5.8 mph - N/A   Clear
7:35 PM 48.2 °F - 26.6 °F 43% 29.85 in 10.0 mi SSW 4.6 mph - N/A   Clear
7:55 PM 46.4 °F 42.4 °F 26.6 °F 46% 29.85 in 10.0 mi SW 8.1 mph - N/A   Clear
8:15 PM 46.4 °F 42.9 °F 26.6 °F 46% 29.85 in 10.0 mi SW 6.9 mph - N/A   Clear
8:35 PM 46.4 °F 42.9 °F 26.6 °F 46% 29.86 in 10.0 mi SW 6.9 mph - N/A   Clear
8:55 PM 46.4 °F 42.4 °F 26.6 °F 46% 29.86 in 10.0 mi SW 8.1 mph - N/A   Clear
9:15 PM 46.4 °F 41.9 °F 26.6 °F 46% 29.86 in 10.0 mi SW 9.2 mph - N/A   Clear
9:35 PM 46.4 °F 41.9 °F 26.6 °F 46% 29.86 in 10.0 mi SW 9.2 mph - N/A   Clear
9:55 PM 46.4 °F 41.9 °F 26.6 °F 46% 29.86 in 10.0 mi SW 9.2 mph - N/A   Clear
10:15 PM 46.4 °F 41.9 °F 26.6 °F 46% 29.85 in 10.0 mi SW 9.2 mph - N/A   Clear
10:35 PM 46.4 °F 41.5 °F 26.6 °F 46% 29.85 in 10.0 mi SW 10.4 mph - N/A   Clear
10:55 PM 46.4 °F 41.9 °F 26.6 °F 46% 29.84 in 10.0 mi SW 9.2 mph - N/A   Clear
11:15 PM 46.4 °F 42.4 °F 24.8 °F 43% 29.84 in 10.0 mi SW 8.1 mph - N/A   Clear
11:35 PM 46.4 °F 41.9 °F 24.8 °F 43% 29.83 in 10.0 mi SW 9.2 mph - N/A   Clear
11:55 PM 46.4 °F 41.1 °F 24.8 °F 43% 29.82 in 10.0 mi SW 11.5 mph - N/A   Clear